Tracking 20083 objects as of 12-Dec-2019
HD Live streaming from Space Station
objects crossing your sky now

FENGYUN 1C DEB

Track FENGYUN 1C DEB now!
10-day predictions


NORAD ID: 36159
Int'l Code: 1999-025DSG
Perigee: 467.3 km
Apogee: 832.1 km
Inclination: 99.5 °
Period: 97.6 minutes
Semi major axis: 7020 km
RCS: 0.0089 m2 (small)
Launch date: May 10, 1999
Source: People's Republic of China (PRC)
Launch site: Taiyaun Space Center, China (TSC)

Note: This is SATELLITE DEBRIS
aabbcc
Your satellite tracking list
Your tracking list is empty




NASA's NSSDC Master Catalog

Two Line Element Set (TLE):
1 36159U 99025DSG 19345.17117461  .00002043  00000-0  17934-3 0  9995
2 36159  99.5105 308.9940 0259852 311.7708  46.1547 14.75820602641526
Source of the keplerian elements: AFSPC